HK36E SVMI-SKCG

Flight info

Callsign HK36E
Flight time N/A
Altitude 30000
Route BUTSA2 BUTSA DCT LIXIL DCT ATIGA DCT MADNO DCT MAU DCT UTKIV DCT MAKBU DCT BAQ BAQ4B
Aircraft BE20/M-SDFGRWY/LB1

Departure

Time 2026-04-28 03:59
Airport Maiquetía Simón Bolívar International Airport (SVMI)

Arrival

Time N/A
Airport Rafael Nuñez International Airport (SKCG)
Time Latitude Longitude Altitude Speed Heading
2026-04-28 03:47 10.60017 -66.98467 183 ft 0 kts 231°
2026-04-28 03:54 10.60019 -66.98484 183 ft 8 kts 307°
2026-04-28 03:54 10.60049 -66.98488 188 ft 7 kts
2026-04-28 03:55 10.60058 -66.98508 182 ft 9 kts 238°
2026-04-28 03:55 10.60026 -66.98574 182 ft 11 kts 254°
2026-04-28 03:55 10.60005 -66.98654 180 ft 12 kts 255°
2026-04-28 03:55 10.59979 -66.98753 178 ft 18 kts 255°
2026-04-28 03:56 10.59952 -66.98848 176 ft 16 kts 255°
2026-04-28 03:56 10.59925 -66.98959 175 ft 16 kts 257°
2026-04-28 03:56 10.59896 -66.99074 173 ft 16 kts 255°
2026-04-28 03:56 10.59867 -66.99197 172 ft 15 kts 256°
2026-04-28 03:57 10.59840 -66.99303 170 ft 17 kts 256°
2026-04-28 03:57 10.59817 -66.99393 169 ft 8 kts 258°
2026-04-28 03:57 10.59800 -66.99466 168 ft 15 kts 255°
2026-04-28 03:57 10.59796 -66.99548 166 ft 12 kts 282°
2026-04-28 03:58 10.59811 -66.99622 164 ft 10 kts 279°
2026-04-28 03:58 10.59815 -66.99692 163 ft 6 kts 271°
2026-04-28 03:58 10.59856 -66.99738 162 ft 11 kts
2026-04-28 03:58 10.59897 -66.99657 164 ft 14 kts 83°
2026-04-28 03:59 10.59910 -66.99596 165 ft 15 kts 75°
2026-04-28 03:59 10.59991 -66.99272 170 ft 81 kts 77°
2026-04-28 03:59 10.60165 -66.98559 351 ft 118 kts 76°
2026-04-28 03:59 10.60378 -66.97733 839 ft 125 kts 76°
2026-04-28 04:00 10.60580 -66.96876 1447 ft 129 kts 79°
2026-04-28 04:00 10.60784 -66.95885 1773 ft 157 kts 79°
2026-04-28 04:00 10.61008 -66.94806 2496 ft 154 kts 79°
2026-04-28 04:00 10.61232 -66.93725 3079 ft 160 kts 79°
2026-04-28 04:01 10.61462 -66.92612 3632 ft 161 kts 80°
2026-04-28 04:01 10.61688 -66.91512 4212 ft 155 kts 81°
2026-04-28 04:01 10.61910 -66.90440 4771 ft 156 kts 80°
2026-04-28 04:01 10.62128 -66.89375 5315 ft 154 kts 81°
2026-04-28 04:02 10.62347 -66.88309 5865 ft 153 kts 82°
2026-04-28 04:02 10.62566 -66.87245 6416 ft 154 kts 83°
2026-04-28 04:02 10.62784 -66.86180 6918 ft 155 kts 83°
2026-04-28 04:02 10.63041 -66.85020 7005 ft 182 kts 73°
2026-04-28 04:03 10.63927 -66.83980 7026 ft 212 kts 34°
2026-04-28 04:03 10.65423 -66.83626 7026 ft 233 kts 359°
2026-04-28 04:03 10.66906 -66.84180 7400 ft 223 kts 329°
2026-04-28 04:03 10.68139 -66.84991 8198 ft 197 kts 334°
2026-04-28 04:04 10.69361 -66.85500 8861 ft 188 kts 347°
2026-04-28 04:04 10.70638 -66.85842 9364 ft 191 kts 350°
2026-04-28 04:04 10.71931 -66.86181 9907 ft 192 kts 349°
2026-04-28 04:04 10.73227 -66.86541 10376 ft 193 kts 348°
2026-04-28 04:05 10.74513 -66.86902 10836 ft 194 kts 348°
2026-04-28 04:05 10.75818 -66.87268 11324 ft 193 kts 348°
2026-04-28 04:05 10.77115 -66.87631 11808 ft 195 kts 348°
2026-04-28 04:05 10.78436 -66.88000 12268 ft 196 kts 347°
2026-04-28 04:06 10.79765 -66.88371 12710 ft 200 kts 347°
2026-04-28 04:06 10.81103 -66.88746 13171 ft 198 kts 347°
2026-04-28 04:06 10.82382 -66.89208 13579 ft 198 kts 329°
2026-04-28 04:06 10.83422 -66.90118 13948 ft 198 kts 306°
2026-04-28 04:07 10.84050 -66.91339 14372 ft 195 kts 281°
2026-04-28 04:07 10.84195 -66.92694 14795 ft 190 kts 266°
2026-04-28 04:07 10.84192 -66.94031 15292 ft 188 kts 265°
2026-04-28 04:07 10.84189 -66.95368 15732 ft 189 kts 266°
2026-04-28 04:08 10.84186 -66.96702 16204 ft 188 kts 266°
2026-04-28 04:08 10.84181 -66.98005 16732 ft 186 kts 267°
2026-04-28 04:08 10.84177 -66.99329 17240 ft 186 kts 267°
2026-04-28 04:08 10.84171 -67.00640 17744 ft 186 kts 266°
2026-04-28 04:09 10.84166 -67.01959 18249 ft 185 kts 266°
2026-04-28 04:09 10.84162 -67.03262 18718 ft 184 kts 268°
2026-04-28 04:09 10.84157 -67.04557 19137 ft 186 kts 267°
2026-04-28 04:09 10.84151 -67.05865 19592 ft 185 kts 265°
2026-04-28 04:10 10.84146 -67.07182 19978 ft 190 kts 266°
2026-04-28 04:10 10.84136 -67.08615 20014 ft 214 kts 265°
2026-04-28 04:10 10.84128 -67.10207 20020 ft 235 kts 266°
2026-04-28 04:10 10.84123 -67.11923 20020 ft 249 kts 268°
2026-04-28 04:11 10.84119 -67.13727 20016 ft 259 kts 266°
2026-04-28 04:11 10.84112 -67.15584 20007 ft 265 kts 267°
2026-04-28 04:11 10.84103 -67.17456 20007 ft 270 kts 268°
2026-04-28 04:11 10.84096 -67.19387 20004 ft 275 kts 268°
2026-04-28 04:12 10.84032 -67.21340 20005 ft 275 kts 259°
2026-04-28 04:12 10.83710 -67.23236 20331 ft 260 kts 258°
2026-04-28 04:12 10.83423 -67.24959 21143 ft 234 kts 256°
2026-04-28 04:12 10.83169 -67.26502 22033 ft 209 kts 256°
2026-04-28 04:13 10.82939 -67.27871 22821 ft 191 kts 254°
2026-04-28 04:13 10.82716 -67.29188 23332 ft 188 kts 254°
2026-04-28 04:13 10.82493 -67.30501 23750 ft 188 kts 255°
2026-04-28 04:13 10.82270 -67.31817 24119 ft 188 kts 256°
2026-04-28 04:14 10.82054 -67.33124 24530 ft 186 kts 256°
2026-04-28 04:14 10.81834 -67.34430 24894 ft 187 kts 256°
2026-04-28 04:14 10.81615 -67.35735 25279 ft 186 kts 256°
2026-04-28 04:14 10.81397 -67.37028 25650 ft 186 kts 255°
2026-04-28 04:15 10.81182 -67.38311 25994 ft 187 kts 254°
2026-04-28 04:15 10.80964 -67.39608 26379 ft 185 kts 255°
2026-04-28 04:15 10.80529 -67.42198 27058 ft 186 kts 254°
2026-04-28 04:16 10.80312 -67.43490 27426 ft 185 kts 255°
2026-04-28 04:16 10.80093 -67.44790 27737 ft 187 kts 255°
2026-04-28 04:16 10.79874 -67.46095 28065 ft 187 kts 255°
2026-04-28 04:16 10.79656 -67.47395 28434 ft 186 kts 255°
2026-04-28 04:17 10.79437 -67.48694 28746 ft 187 kts 255°
2026-04-28 04:17 10.79217 -67.49997 29062 ft 187 kts 255°
2026-04-28 04:17 10.78999 -67.51296 29417 ft 185 kts 255°
2026-04-28 04:17 10.78781 -67.52593 29721 ft 186 kts 254°
2026-04-28 04:18 10.78563 -67.53880 29987 ft 190 kts 254°
2026-04-28 04:18 10.78327 -67.55263 29994 ft 206 kts 255°
2026-04-28 04:18 10.78074 -67.56758 29999 ft 222 kts 255°
2026-04-28 04:18 10.77805 -67.58355 30001 ft 235 kts 256°
2026-04-28 04:19 10.77524 -67.60032 29998 ft 246 kts 256°
2026-04-28 04:19 10.77229 -67.61782 29994 ft 255 kts 256°
2026-04-28 04:19 10.76925 -67.63590 29993 ft 262 kts 256°
2026-04-28 04:19 10.76613 -67.65440 29991 ft 268 kts 256°
2026-04-28 04:20 10.76299 -67.67301 29988 ft 272 kts 256°
2026-04-28 04:20 10.75978 -67.69206 29988 ft 275 kts 256°
2026-04-28 04:20 10.75653 -67.71128 29994 ft 277 kts 256°
2026-04-28 04:20 10.75326 -67.73065 29999 ft 278 kts 256°
2026-04-28 04:21 10.74996 -67.75017 29998 ft 280 kts 256°
2026-04-28 04:21 10.74665 -67.76972 29994 ft 281 kts 256°
2026-04-28 04:21 10.74337 -67.78910 29997 ft 281 kts 256°
2026-04-28 04:21 10.74004 -67.80878 29996 ft 282 kts 256°
2026-04-28 04:22 10.73670 -67.82846 29997 ft 282 kts 256°
2026-04-28 04:22 10.73336 -67.84820 29996 ft 283 kts 256°
2026-04-28 04:22 10.73001 -67.86793 29995 ft 283 kts 256°
2026-04-28 04:22 10.72671 -67.88742 29996 ft 283 kts 256°
2026-04-28 04:23 10.72335 -67.90722 29997 ft 283 kts 256°
2026-04-28 04:23 10.72000 -67.92697 29999 ft 283 kts 256°
2026-04-28 04:23 10.71665 -67.94669 29991 ft 283 kts 256°
2026-04-28 04:23 10.71329 -67.96647 29991 ft 283 kts 256°
2026-04-28 04:24 10.70993 -67.98627 29991 ft 283 kts 256°
2026-04-28 04:24 10.70661 -68.00580 29992 ft 283 kts 256°
2026-04-28 04:24 10.70325 -68.02555 29991 ft 283 kts 256°
2026-04-28 04:24 10.69988 -68.04535 29991 ft 283 kts 256°
2026-04-28 04:25 10.69651 -68.06513 29993 ft 283 kts 256°
2026-04-28 04:25 10.69429 -68.07819 29992 ft 284 kts 256°
2026-04-28 04:25 10.69092 -68.09797 29994 ft 284 kts 256°
2026-04-28 04:25 10.68755 -68.11774 29994 ft 284 kts 256°
2026-04-28 04:26 10.68309 -68.14392 29994 ft 283 kts 256°
2026-04-28 04:26 10.67972 -68.16370 29994 ft 283 kts 256°
2026-04-28 04:26 10.67748 -68.17681 29994 ft 283 kts 256°
2026-04-28 04:26 10.67411 -68.19659 29989 ft 284 kts 256°
2026-04-28 04:27 10.67072 -68.21640 29989 ft 284 kts 256°
2026-04-28 04:27 10.66734 -68.23620 29990 ft 283 kts 256°
2026-04-28 04:27 10.66400 -68.25574 29989 ft 283 kts 256°
2026-04-28 04:27 10.66062 -68.27554 29998 ft 283 kts 256°
2026-04-28 04:28 10.65724 -68.29532 29998 ft 283 kts 256°
2026-04-28 04:28 10.65387 -68.31504 29997 ft 283 kts 256°
2026-04-28 04:28 10.65049 -68.33478 29997 ft 283 kts 256°
2026-04-28 04:28 10.64711 -68.35451 29997 ft 283 kts 256°
2026-04-28 04:29 10.64373 -68.37427 29997 ft 283 kts 256°
2026-04-28 04:29 10.64035 -68.39402 29997 ft 283 kts 256°
2026-04-28 04:29 10.63700 -68.41354 29997 ft 283 kts 256°
2026-04-28 04:29 10.63361 -68.43331 29997 ft 283 kts 256°
2026-04-28 04:30 10.63022 -68.45309 29997 ft 283 kts 256°
2026-04-28 04:30 10.62683 -68.47283 30000 ft 283 kts 256°
2026-04-28 04:30 10.62344 -68.49258 29997 ft 283 kts 256°
2026-04-28 04:30 10.62010 -68.51205 29997 ft 283 kts 256°
2026-04-28 04:31 10.61672 -68.53175 29997 ft 283 kts 257°
2026-04-28 04:31 10.61332 -68.55152 29997 ft 283 kts 257°
2026-04-28 04:31 10.60993 -68.57126 29998 ft 283 kts 256°
2026-04-28 04:31 10.60653 -68.59099 29998 ft 283 kts 256°
2026-04-28 04:32 10.60314 -68.61071 29998 ft 283 kts 256°
2026-04-28 04:32 10.59975 -68.63042 29998 ft 283 kts 256°
2026-04-28 04:32 10.59635 -68.65014 29998 ft 283 kts 256°
2026-04-28 04:32 10.59300 -68.66961 29997 ft 283 kts 256°
2026-04-28 04:33 10.58957 -68.68953 29998 ft 283 kts 257°
2026-04-28 04:33 10.58622 -68.70898 29997 ft 283 kts 256°
2026-04-28 04:33 10.58282 -68.72871 30003 ft 283 kts 256°
2026-04-28 04:33 10.57941 -68.74845 30003 ft 283 kts 256°
2026-04-28 04:34 10.57601 -68.76816 30003 ft 283 kts 256°
2026-04-28 04:34 10.57261 -68.78785 30003 ft 283 kts 256°
2026-04-28 04:34 10.56921 -68.80752 30003 ft 283 kts 256°
2026-04-28 04:34 10.56580 -68.82726 30003 ft 283 kts 256°
2026-04-28 04:35 10.56240 -68.84696 30012 ft 283 kts 256°
2026-04-28 04:35 10.55899 -68.86669 30023 ft 283 kts 257°
2026-04-28 04:35 10.55558 -68.88639 30023 ft 283 kts 257°
2026-04-28 04:35 10.55216 -68.90615 30020 ft 284 kts 257°
2026-04-28 04:36 10.54874 -68.92590 30022 ft 284 kts 257°
2026-04-28 04:36 10.54537 -68.94542 30022 ft 283 kts 257°
2026-04-28 04:36 10.54433 -68.96541 30017 ft 285 kts 271°
2026-04-28 04:36 10.54604 -68.98555 30024 ft 286 kts 271°
2026-04-28 04:37 10.54766 -69.00575 30024 ft 287 kts 271°
2026-04-28 04:37 10.54924 -69.02593 30019 ft 287 kts 271°
2026-04-28 04:37 10.55085 -69.04617 30024 ft 287 kts 271°
2026-04-28 04:37 10.55248 -69.06645 30025 ft 287 kts 271°
2026-04-28 04:38 10.55406 -69.08646 30017 ft 287 kts 271°
2026-04-28 04:38 10.55569 -69.10672 30021 ft 287 kts 271°
2026-04-28 04:38 10.55730 -69.12696 30021 ft 287 kts 271°
2026-04-28 04:38 10.55891 -69.14718 30021 ft 287 kts 271°
2026-04-28 04:39 10.56052 -69.16749 30021 ft 287 kts 271°
2026-04-28 04:39 10.56213 -69.18778 30022 ft 287 kts 271°
2026-04-28 04:39 10.56372 -69.20775 30018 ft 287 kts 271°
2026-04-28 04:39 10.56533 -69.22803 30019 ft 287 kts 271°
2026-04-28 04:40 10.56693 -69.24826 30019 ft 287 kts 271°
2026-04-28 04:40 10.56853 -69.26854 30021 ft 287 kts 271°
2026-04-28 04:40 10.57013 -69.28876 30024 ft 287 kts 271°
2026-04-28 04:40 10.57172 -69.30894 30025 ft 287 kts 271°
2026-04-28 04:41 10.57330 -69.32890 30025 ft 287 kts 271°
2026-04-28 04:41 10.57490 -69.34912 30025 ft 287 kts 271°
2026-04-28 04:41 10.57649 -69.36940 30024 ft 287 kts 271°
2026-04-28 04:41 10.57809 -69.38968 30026 ft 287 kts 271°
2026-04-28 04:42 10.57969 -69.40990 30022 ft 287 kts 271°
2026-04-28 04:42 10.58127 -69.43009 30023 ft 287 kts 271°
2026-04-28 04:42 10.58284 -69.45005 30022 ft 287 kts 271°
2026-04-28 04:42 10.58443 -69.47030 30022 ft 287 kts 271°
2026-04-28 04:43 10.58601 -69.49055 30023 ft 287 kts 271°
2026-04-28 04:43 10.58761 -69.51083 30023 ft 287 kts 271°
2026-04-28 04:43 10.58920 -69.53111 30026 ft 287 kts 271°
2026-04-28 04:43 10.59078 -69.55136 30022 ft 287 kts 271°
2026-04-28 04:44 10.59234 -69.57141 30020 ft 287 kts 271°
2026-04-28 04:44 10.59393 -69.59166 30020 ft 287 kts 271°
2026-04-28 04:44 10.59551 -69.61191 30021 ft 287 kts 271°
2026-04-28 04:44 10.59709 -69.63216 30021 ft 287 kts 271°
2026-04-28 04:45 10.59866 -69.65234 30020 ft 287 kts 271°
2026-04-28 04:45 10.60024 -69.67257 30014 ft 287 kts 271°
2026-04-28 04:45 10.60181 -69.69280 30014 ft 287 kts 271°
2026-04-28 04:45 10.60337 -69.71306 30014 ft 287 kts 271°
2026-04-28 04:46 10.60472 -69.73307 30015 ft 287 kts 270°
2026-04-28 04:46 10.60600 -69.75338 30016 ft 287 kts 270°
2026-04-28 04:46 10.60734 -69.77368 30012 ft 288 kts 270°
2026-04-28 04:46 10.60872 -69.79399 30012 ft 288 kts 270°
2026-04-28 04:47 10.61009 -69.81430 30006 ft 287 kts 270°
2026-04-28 04:47 10.61143 -69.83455 30006 ft 287 kts 270°
2026-04-28 04:47 10.61276 -69.85454 30009 ft 287 kts 270°
2026-04-28 04:47 10.61411 -69.87478 30008 ft 287 kts 270°
2026-04-28 04:48 10.61546 -69.89500 30009 ft 287 kts 270°
2026-04-28 04:48 10.61680 -69.91526 30008 ft 287 kts 270°
2026-04-28 04:48 10.61815 -69.93549 30000 ft 286 kts 270°
2026-04-28 04:48 10.61949 -69.95572 30001 ft 287 kts 270°
2026-04-28 04:49 10.62082 -69.97571 29999 ft 286 kts 270°
2026-04-28 04:49 10.62215 -69.99598 30000 ft 287 kts 270°
2026-04-28 04:49 10.62349 -70.01622 29998 ft 287 kts 270°
2026-04-28 04:49 10.62484 -70.03651 29999 ft 287 kts 270°
2026-04-28 04:50 10.62617 -70.05675 29997 ft 287 kts 270°
2026-04-28 04:50 10.62751 -70.07698 29997 ft 287 kts 270°
2026-04-28 04:50 10.62885 -70.09727 29998 ft 287 kts 270°
2026-04-28 04:50 10.63016 -70.11729 29999 ft 287 kts 270°
2026-04-28 04:51 10.63149 -70.13756 29999 ft 287 kts 270°
2026-04-28 04:51 10.63283 -70.15780 29998 ft 287 kts 270°
2026-04-28 04:51 10.63416 -70.17807 29997 ft 287 kts 270°
2026-04-28 04:51 10.63548 -70.19829 29998 ft 287 kts 270°